TIME,DELAY(SENSOR),PRES,OXYGEN,RAWTEMP,T(OPTODE),TCPHASE,FLUOR,BETA(BETA700),BETA(BETA412),BETA(BETA440),CDOM,C(CSC),ED(ED412.40),ED(ED444.00),ED(ED489.70),ED(ED554.30),LU(LU411.80),LU(LU443.40),LU(LU489.60),LU(LU554.10),COMP,TILTX,TILTY,CHECK
1364702005,5805,843.8400268554688000,47.5832214355468750,658.9771118164062000,4.6616439819335940,53.8746299743652340,53,100,87,78,80,14895,2147753106,2147426806,2148009398,2147873042,2147639222,2147060160,2148254582,2147198820,2314,4,14,58330
1364705601,5805,914.4099731445312000,48.8698501586914060,665.9395751953125000,4.4322338104248050,53.7777900695800800,52,99,86,80,80,14897,2147751945,2147423881,2148010313,2147872877,2147642230,2147058349,2148259355,2147196516,521,4,13,28819
1364709201,5811,926.0399780273438000,48.9180793762207000,667.2645874023438000,4.3885149955749510,53.7829513549804700,53,97,87,78,80,14895,2147756470,2147420900,2148007533,2147872685,2147639213,2147055817,2148258121,2147194130,969,4,14,48764
1364712801,5808,963.6199951171875000,49.4661598205566400,669.7088012695312000,4.3078169822692870,53.7382011413574200,53,97,86,79,80,14896,2147755529,2147424612,2148009563,2147874395,2147640438,2147053741,2148255606,2147199680,3122,4,13,65117
1364716401,5809,957.5300292968750000,49.5541687011718750,670.3287963867188000,4.2873358726501465,53.7354393005371100,53,101,85,78,80,14894,2147752448,2147427913,2148008265,2147874624,2147640036,2147060553,2148261147,2147198518,545,4,13,16747
1364720001,5807,977.9699707031250000,49.2612915039062500,669.2689208984375000,4.3223438262939450,53.7635993957519500,52,99,84,80,80,14897,2147754176,2147425572,2148009005,2147874797,2147643300,2147059538,2148263954,2147196672,284,4,13,54887
1364723601,5813,977.3099975585938000,48.7046394348144500,668.0645751953125000,4.3621082305908200,53.8284187316894500,53,98,87,80,79,14895,2147754816,2147421906,2148009654,2147875776,2147640018,2147056384,2148262994,2147196132,1138,4,13,61991
1364727201,5807,984.3200073242188000,48.7094306945800800,667.8095703125000000,4.3705248832702640,53.8227806091308600,52,98,88,78,80,14897,2147752969,2147424356,2148010752,2147876251,2147642505,2147063744,2148260086,2147196845,2517,4,13,12786
1364730801,5810,971.7100219726562000,48.4576187133789060,668.2960815429688000,4.3544650077819820,53.8642883300781250,52,98,85,78,80,14894,2147755803,2147423241,2148007076,2147872274,2147637961,2147058166,2148263405,2147195218,142,4,14,11171
1364734401,5806,973.6699829101562000,48.8731117248535160,669.3853759765625000,4.3184971809387210,53.8171081542968750,53,99,87,80,80,14890,2147758729,2147425289,2148010093,2147873901,2147638884,2147059529,2148262473,2147198555,161,4,13,28220
1364738001,5806,964.8599853515625000,49.1012001037597660,671.3024291992188000,4.2551651000976560,53.8088111877441400,53,99,88,78,80,14895,2147753462,2147425280,2148007661,2147876059,2147639305,2147055012,2148256804,2147193947,408,4,13,30429
1364741601,5810,971.2100219726562000,49.3259811401367200,671.3151245117188000,4.2547440528869630,53.7825584411621100,53,99,83,79,80,14895,2147758436,2147422153,2148014829,2147876132,2147642413,2147058166,2148259803,2147197997,3537,4,13,56752
1364745201,5810,972.6199951171875000,49.2295188903808600,672.4138793945312000,4.2184262275695800,53.8080215454101560,53,98,87,79,80,14895,2147757577,2147424246,2148009645,2147874715,2147639542,2147057005,2148257664,2147197659,3134,4,13,40065
1364748801,5808,977.0300292968750000,49.3556404113769500,671.2775268554688000,4.2559890747070310,53.7719688415527340,53,99,90,79,79,14896,2147757494,2147423204,2148010779,2147874258,2147642925,2147054390,2148260150,2147195748,249,4,13,60523
1364752401,5809,971.9400024414062000,49.3604393005371100,671.3574218750000000,4.2533450126647950,53.7766189575195300,53,102,88,77,80,14895,2147755364,2147422957,2148007497,2147872338,2147642194,2147062125,2148263268,2147192384,405,4,13,15018
1364756001,5806,964.6799926757812000,48.8141098022460940,672.8555297851562000,4.2038230895996090,53.8688583374023440,52,98,86,79,80,14896,2147756553,2147422674,2148009179,2147874230,2147641846,2147054482,2148254720,2147198683,284,4,13,12546
1364759601,5809,979.2100219726562000,49.7016296386718750,672.7329101562500000,4.2078781127929690,53.7459182739257800,51,101,85,79,81,14893,2147756013,2147425398,2148010989,2147876068,2147641252,2147059757,2148261412,2147195885,111,4,13,52728
1364763201,5809,978.9400024414062000,49.0181694030761700,671.2282104492188000,4.2576160430908200,53.8237915039062500,53,100,86,79,80,14891,2147757257,2147425508,2148011702,2147876580,2147639689,2147053412,2148263451,2147198509,3451,4,13,7639
1364766801,5807,979.0300292968750000,49.0110893249511700,670.3466186523438000,4.2867469787597660,53.8143196105957000,53,97,87,78,79,14893,2147756416,2147423451,2148010084,2147874413,2147640228,2147054061,2148259072,2147196763,3271,4,13,14898
1364770401,5809,982.4199829101562000,48.7803611755371100,670.1176147460938000,4.2943129539489750,53.8427391052246100,52,97,84,78,80,14890,2147754651,2147424155,2148010678,2147874258,2147638930,2147060077,2148261385,2147200347,18,4,13,7546
1364774001,5808,979.4000244140625000,48.4904289245605500,669.6162719726562000,4.3108730316162110,53.8775787353515600,53,99,83,80,80,14892,2147756489,2147423670,2148007917,2147876498,2147638747,2147055460,2148259236,2147198217,287,4,13,13349
1364777601,5811,984.0700073242188000,48.9911308288574200,670.3463134765625000,4.2867569923400880,53.8104400634765600,53,97,85,79,80,14864,2147756571,2147425654,2148011638,2147872566,2147639241,2147056996,2148257472,2147196973,24,4,13,37516
1364781201,5807,981.8900146484375000,48.7565116882324200,671.1851806640625000,4.2590370178222660,53.8581809997558600,52,97,91,79,80,14865,2147758966,2147425088,2148008292,2147876187,2147642121,2147056676,2148262637,2147199945,3554,4,13,9139
1364784801,5811,983.3400268554688000,48.6780204772949200,671.3471069335938000,4.2536869049072270,53.8728485107421900,53,97,88,79,81,14865,2147754194,2147422665,2148010989,2147874944,2147642752,2147057188,2148262720,2147196242,446,4,13,63175
1364788401,5808,967.2600097656250000,48.9143981933593750,671.8729248046875000,4.2363090515136720,53.8468017578125000,51,98,86,79,79,14862,2147754048,2147422573,2148009810,2147874468,2147640694,2147061659,2148258761,2147198866,243,4,13,18045
1364792001,5810,973.7600097656250000,49.2148284912109400,673.1306762695312000,4.1947231292724610,53.8187103271484400,52,100,85,79,81,14864,2147755126,2147424548,2148010880,2147875035,2147642697,2147053659,2148260288,2147197202,3453,4,13,16271
1364795601,5809,970.3200073242188000,48.9014892578125000,672.4509277343750000,4.2172012329101560,53.8507194519043000,52,100,87,79,80,14862,2147757778,2147424740,2148008265,2147878189,2147642093,2147052077,2148258496,2147195894,3547,4,13,15808
1364799201,5806,979.3900146484375000,49.1325187683105500,672.5275268554688000,4.2146701812744140,53.8190498352050800,53,99,84,80,80,14857,2147754349,2147425088,2148009801,2147875181,2147638262,2147059117,2148260489,2147195666,3509,4,13,46811
1364802801,5807,966.7500000000000000,48.8400306701660160,673.3452148437500000,4.1876320838928220,53.8743400573730500,52,99,84,80,80,14860,2147758189,2147425792,2148010258,2147875145,2147644406,2147056036,2148264182,2147197915,497,4,13,43476
1364806401,5806,987.0900268554688000,48.7938995361328100,671.3244018554688000,4.2544379234313965,53.8535995483398440,52,98,88,79,81,14860,2147755629,2147420973,2148011154,2147875638,2147641590,2147057444,2148258779,2147198966,209,4,13,40730
1364810001,5807,989.0599975585938000,48.7506484985351560,670.1754150390625000,4.2924017906188965,53.8493003845214840,52,97,85,78,80,14862,2147755309,2147421933,2148011282,2147873654,2147640932,2147055926,2148260406,2147196278,324,4,13,57897
1364813601,5809,983.4500122070312000,48.4565582275390600,670.9412841796875000,4.2670960426330570,53.8946304321289060,52,125,83,78,80,14861,2147759469,2147426185,2148013842,2147874971,2147640649,2147055158,2148260096,2147194770,3596,4,13,19626
1364817201,5808,983.6900024414062000,48.4505386352539060,670.6599731445312000,4.2763938903808590,53.8936614990234400,52,99,91,78,81,14856,2147754678,2147422674,2148010066,2147877302,2147644306,2147057837,2148263232,2147196041,3418,4,13,4901
1364820801,5807,977.6300048828125000,48.5703392028808600,671.0661010742188000,4.2629737854003910,53.8813209533691400,52,97,91,79,81,14861,2147754998,2147425097,2148010898,2147875108,2147643254,2147059702,2148260955,2147193024,522,4,13,26563
1364824401,5807,974.4799804687500000,47.6989097595214840,671.5852050781250000,4.2458171844482420,54.0094795227050800,52,104,88,79,80,14858,2147754596,2147424338,2148008548,2147877348,2147641764,2147056795,2148256155,2147198902,553,4,13,39367
1364828001,5809,972.5700073242188000,48.8580017089843750,673.6013183593750000,4.1791591644287110,53.8778381347656250,52,99,85,80,81,14859,2147756123,2147426185,2148009216,2147876260,2147640073,2147055195,2148260096,2147200347,74,4,13,20076
1364831601,5811,976.4500122070312000,49.1189498901367200,673.2816162109375000,4.1897320747375490,53.8359603881835940,52,97,86,78,81,14857,2147756745,2147426148,2148010349,2147874742,2147640978,2147058203,2148261952,2147197211,189,4,13,19135
1364835201,5810,972.2500000000000000,49.2300109863281250,673.2453002929688000,4.1909332275390625,53.8209304809570300,52,99,87,79,80,14859,2147755968,2147424109,2148012297,2147876105,2147642413,2147060790,2148266048,2147198134,3518,4,13,42336
1364838801,5809,969.2000122070312000,48.7780609130859400,672.6210937500000000,4.2115750312805180,53.8708915710449200,53,99,86,79,81,14857,2147754358,2147423890,2148012790,2147875099,2147639515,2147065243,2148262592,2147196297,30,4,13,61926
1364842401,5806,974.1300048828125000,48.5602607727050800,673.5178222656250000,4.1819210052490230,53.9141616821289060,53,96,87,79,80,14854,2147757056,2147425883,2148008841,2147876937,2147638985,2147064731,2148262171,2147200137,163,4,13,61365
1364846001,5810,991.7199707031250000,49.1826210021972660,672.6749267578125000,4.2097949981689450,53.8196601867675800,52,98,87,79,81,14850,2147755373,2147426294,2148012178,2147875382,2147639396,2147054628,2148261156,2147199689,237,4,13,17287
1364847055,5808,986.7100219726562000,48.9425315856933600,672.0363159179688000,4.2309069633483890,53.8428993225097660,52,100,86,80,80,14879,2147756205,2147426066,2148012022,2147875849,2147638454,2147055122,2148256146,2147200118,101,4,13,54211
